Regional Weather Roundup
Issued by NWS

Current Version | Previous Version | Text Only | Print | Product List | Glossary On
Versions: 1 2 3 4 5 6 7 8 9 10 11 12 13 14 15 16 17 18 19 20 21 22 23 24 25 26 27 28 29 30 31 32 33 34 35 36 37 38 39 40 41 42 43 44 45 46 47
000
ASUS42 KFFC 281103
RWRGA
WEATHER ROUNDUP FOR GEORGIA
NATIONAL WEATHER SERVICE PEACHTREE CITY GA
600 AM EST SUN DEC 28 2014

NOTE: "FAIR" INDICATES FEW OR NO CLOUDS BELOW 12,000 FEET WITH NO
SIGNIFICANT WEATHER AND/OR OBSTRUCTIONS TO VISIBILITY.

* = USE WITH CAUTION. THE STATIONS MARKED WITH AN ASTERISK MAY NOT
REPORT WEATHER SUCH AS PRECIPITATION, FOG, OR THUNDER AND ARE NOT
QUALITY CONTROLLED BY NWS.

THE REMARK "TC" DENOTES TEMPERATURE READING IN DEGREES CELSIUS.

GAZ001>058-281200-
NORTH GEORGIA

CITY           SKY/WX    TMP DP  RH WIND       PRES   REMARKS
ATLANTA        LGT RAIN  55  53  93 S8        30.08F
ATHENS         LGT RAIN  51  51 100 S6        30.10F FOG
CHAMBLEE       CLOUDY    53  52  96 S5        30.10S
PEACHTREE CITY RAIN      54  53  97 S3        30.10S FOG
ROME           LGT RAIN  52  52 100 CALM      30.05F FOG
WEST ATLANTA   LGT RAIN  55  53  93 SE5       30.08F
GAINESVILLE    LGT RAIN  50  50 100 CALM      30.11S FOG
CARTERSVILLE   RAIN      54  52  93 VRB6      30.07S FOG


CITY           SKY/WX    TMP DP  RH WIND       PRES   REMARKS
DALTON*        RAIN      52  52 100 CALM      30.06S
MARIETTA       LGT RAIN  54  54 100 SE6       30.08F
$$

GAZ059>098-102>109-281200-
CENTRAL GEORGIA

CITY           SKY/WX    TMP DP  RH WIND       PRES   REMARKS
AUGUSTA-BUSH   CLOUDY    54  53  97 CALM      30.15S
AUGUSTA-DANIEL CLOUDY    55  53  93 N3        30.16S
COLUMBUS       CLOUDY    56  54  93 CALM      30.08S
MACON          CLOUDY    55  55 100 NE7       30.12F
ROBINS AFB     CLOUDY    56  55  98 N5        30.12F


CITY           SKY/WX    TMP DP  RH WIND       PRES   REMARKS
LAGRANGE*      LGT RAIN  57  56  99 CALM      30.09F
SYLVANIA*      MOCLDY    54  54 100 CALM      30.14R
MILLEDGEVILLE* CLOUDY    54  54 100 CALM      30.14F
$$

GAZ099>101-110>166-281200-
SOUTH GEORGIA

CITY           SKY/WX    TMP DP  RH WIND       PRES   REMARKS
SAVANNAH       MOCLDY    53  51  93 CALM      30.13S
VALDOSTA       PTCLDY    55  55 100 CALM      30.13F FOG
ALMA           PTCLDY    53  52  96 CALM      30.13R
ST SIMONS      CLEAR     55  53  93 CALM      30.12F
FT STEWART     MOCLDY    50  48  93 CALM      30.11S
ALBANY         PTCLDY    56  54  93 CALM      30.12S FOG
HUNTER AFB     MOCLDY    51  51 100 SE2       30.10S
MOODY AFB      PTCLDY    55  55  97 S3        30.12F
BRUNSWICK        N/A     52  52 100 CALM      30.13S


CITY           SKY/WX    TMP DP  RH WIND       PRES   REMARKS
BAINBRIDGE*    MOCLDY    61  59  94 S6        30.11R
MOULTRIE*      PTCLDY    55  55 100 CALM      30.13S FOG
VIDALIA*       MOCLDY    55  55 100 SW3       30.13R
WAYCROSS*      CLEAR     56  56 100 CALM      30.13R
DOUGLAS*       CLEAR     55  55 100 CALM      30.14S FOG
$$


USA.gov is the U.S. government's official web portal to all federal, state and local government web resources and services.